Time,TemperatureF,DewpointF,PressureIn,WindDirection,WindDirectionDegrees,WindSpeedMPH,WindSpeedGustMPH,Humidity,HourlyPrecipIn,Conditions,Clouds,dailyrainin,SoftwareType,DateUTC
2011-07-17 06:23:00,75.0,48.4,29.99,NE,45,2.0,5.6,39,0.00,,,0.00,open2300-1.11,2011-07-17 12:23:00,
2011-07-17 06:33:00,75.0,48.4,29.99,ESE,112,0.0,7.8,39,0.00,,,0.00,open2300-1.11,2011-07-17 12:33:00,
2011-07-17 06:43:00,75.0,48.4,29.99,West,270,0.0,6.3,39,0.00,,,0.00,open2300-1.11,2011-07-17 12:43:00,
2011-07-17 06:53:00,75.0,49.1,30.00,East,90,2.9,6.0,40,0.00,,,0.00,open2300-1.11,2011-07-17 12:53:00,
2011-07-17 07:03:00,75.0,49.1,29.99,East,90,4.9,7.6,40,0.00,,,0.00,open2300-1.11,2011-07-17 13:03:00,
2011-07-17 07:13:00,75.4,49.4,30.00,ESE,112,2.5,8.7,40,0.00,,,0.00,open2300-1.11,2011-07-17 13:13:00,
2011-07-17 07:23:00,75.6,49.6,30.01,East,90,3.8,11.4,40,0.00,,,0.00,open2300-1.11,2011-07-17 13:23:00,
2011-07-17 07:33:00,75.7,49.8,30.01,SE,135,2.2,7.4,40,0.00,,,0.00,open2300-1.11,2011-07-17 13:33:00,
2011-07-17 07:43:00,75.7,49.8,30.01,ESE,112,4.0,8.9,40,0.00,,,0.00,open2300-1.11,2011-07-17 13:43:00,
2011-07-17 07:53:00,75.9,49.9,30.01,SE,135,1.3,5.8,40,0.00,,,0.00,open2300-1.11,2011-07-17 13:53:00,
2011-07-17 08:03:00,75.9,49.9,30.02,East,90,0.0,5.1,40,0.00,,,0.00,open2300-1.11,2011-07-17 14:03:00,
2011-07-17 08:13:00,76.5,50.4,30.02,ENE,67,1.8,2.0,40,0.00,,,0.00,open2300-1.11,2011-07-17 14:13:00,
2011-07-17 08:23:00,76.8,50.7,30.02,SE,135,0.0,5.4,40,0.00,,,0.00,open2300-1.11,2011-07-17 14:23:00,
2011-07-17 08:33:00,77.2,51.1,30.02,East,90,4.0,4.0,40,0.00,,,0.00,open2300-1.11,2011-07-17 14:33:00,
2011-07-17 08:43:00,77.4,50.5,30.02,ESE,112,4.0,4.0,39,0.00,,,0.00,open2300-1.11,2011-07-17 14:43:00,
2011-07-17 08:53:00,77.7,50.8,30.02,East,90,0.0,6.3,39,0.00,,,0.00,open2300-1.11,2011-07-17 14:53:00,
2011-07-17 09:03:00,77.9,50.9,30.02,East,90,0.0,6.5,39,0.00,,,0.00,open2300-1.11,2011-07-17 15:03:00,
2011-07-17 09:13:00,78.1,51.1,30.02,ENE,67,3.1,10.1,39,0.00,,,0.00,open2300-1.11,2011-07-17 15:13:00,
2011-07-17 09:23:00,78.6,50.8,30.03,South,180,1.6,3.1,38,0.00,,,0.00,open2300-1.11,2011-07-17 15:23:00,
2011-07-17 09:33:00,78.6,50.8,30.04,SSW,202,0.0,1.6,38,0.00,,,0.00,open2300-1.11,2011-07-17 15:33:00,
2011-07-17 09:43:00,78.6,50.8,30.04,SE,135,0.0,1.1,38,0.00,,,0.00,open2300-1.11,2011-07-17 15:43:00,
2011-07-17 09:53:00,79.5,52.4,30.04,East,90,0.0,4.9,39,0.00,,,0.00,open2300-1.11,2011-07-17 15:53:00,
2011-07-17 10:03:00,80.2,52.3,30.04,SSW,202,4.7,7.2,38,0.00,,,0.00,open2300-1.11,2011-07-17 16:03:00,
2011-07-17 10:13:00,80.6,51.8,30.04,SE,135,6.5,6.5,37,0.00,,,0.00,open2300-1.11,2011-07-17 16:13:00,
2011-07-17 10:23:00,80.8,52.0,30.04,ENE,67,2.9,6.5,37,0.00,,,0.00,open2300-1.11,2011-07-17 16:23:00,
2011-07-17 10:33:00,81.1,52.3,30.04,East,90,5.8,5.8,37,0.00,,,0.00,open2300-1.11,2011-07-17 16:33:00,
2011-07-17 10:43:00,81.7,52.0,30.04,ENE,67,5.6,5.8,36,0.00,,,0.00,open2300-1.11,2011-07-17 16:43:00,
2011-07-17 10:53:00,82.8,52.9,30.04,East,90,0.0,5.6,36,0.00,,,0.00,open2300-1.11,2011-07-17 16:53:00,
2011-07-17 11:03:00,83.8,53.1,30.04,SSE,157,3.1,4.5,35,0.00,,,0.00,open2300-1.11,2011-07-17 17:03:00,
2011-07-17 11:13:00,83.5,52.0,30.04,ESE,112,0.0,4.5,34,0.00,,,0.00,open2300-1.11,2011-07-17 17:13:00,
2011-07-17 11:23:00,83.5,52.0,30.04,East,90,11.9,11.9,34,0.00,,,0.00,open2300-1.11,2011-07-17 17:23:00,
2011-07-17 11:33:00,83.8,53.1,30.04,SW,225,0.0,11.9,35,0.00,,,0.00,open2300-1.11,2011-07-17 17:33:00,
2011-07-17 11:43:00,85.3,53.6,30.04,SSE,157,4.9,4.9,34,0.00,,,0.00,open2300-1.11,2011-07-17 17:43:00,
2011-07-17 11:53:00,86.7,54.0,30.03,SSE,157,0.0,4.9,33,0.00,,,0.00,open2300-1.11,2011-07-17 17:53:00,
2011-07-17 12:03:00,88.0,54.3,30.03,SE,135,5.4,5.4,32,0.00,,,0.00,open2300-1.11,2011-07-17 18:03:00,
2011-07-17 12:13:00,88.9,53.5,30.03,East,90,4.7,8.5,30,0.00,,,0.00,open2300-1.11,2011-07-17 18:13:00,
2011-07-17 12:23:00,89.8,53.2,30.03,NE,45,4.9,4.9,29,0.00,,,0.00,open2300-1.11,2011-07-17 18:23:00,
2011-07-17 12:33:00,90.3,55.6,30.02,West,270,1.8,6.7,31,0.00,,,0.00,open2300-1.11,2011-07-17 18:33:00,
2011-07-17 12:43:00,89.8,53.2,30.02,SSW,202,0.0,4.2,29,0.00,,,0.00,open2300-1.11,2011-07-17 18:43:00,
2011-07-17 12:53:00,90.1,53.5,30.02,East,90,4.2,4.2,29,0.00,,,0.00,open2300-1.11,2011-07-17 18:53:00,
2011-07-17 13:03:00,90.7,54.0,30.02,East,90,5.6,8.5,29,0.00,,,0.00,open2300-1.11,2011-07-17 19:03:00,
2011-07-17 13:13:00,91.2,53.4,30.02,SE,135,0.0,5.6,28,0.00,,,0.00,open2300-1.11,2011-07-17 19:13:00,
2011-07-17 13:23:00,91.4,52.5,30.02,ESE,112,0.0,0.7,27,0.00,,,0.00,open2300-1.11,2011-07-17 19:23:00,
2011-07-17 13:33:00,91.2,52.3,30.02,SSE,157,0.0,5.4,27,0.00,,,0.00,open2300-1.11,2011-07-17 19:33:00,
2011-07-17 13:43:00,91.0,52.1,30.01,SSE,157,0.0,4.5,27,0.00,,,0.00,open2300-1.11,2011-07-17 19:43:00,
2011-07-17 13:53:00,91.8,52.8,30.00,SW,225,0.0,2.0,27,0.00,,,0.00,open2300-1.11,2011-07-17 19:53:00,
2011-07-17 14:03:00,91.9,52.9,30.00,East,90,3.8,3.8,27,0.00,,,0.00,open2300-1.11,2011-07-17 20:03:00,
2011-07-17 14:13:00,92.1,53.0,29.99,East,90,0.0,3.8,27,0.00,,,0.00,open2300-1.11,2011-07-17 20:13:00,
2011-07-17 14:23:00,92.1,53.0,29.99,SSE,157,0.0,0.9,27,0.00,,,0.00,open2300-1.11,2011-07-17 20:23:00,
2011-07-17 14:33:00,92.1,51.9,29.98,ENE,67,0.0,5.6,26,0.00,,,0.00,open2300-1.11,2011-07-17 20:33:00,
2011-07-17 14:43:00,91.9,52.9,29.99,SE,135,0.0,0.0,27,0.00,,,0.00,open2300-1.11,2011-07-17 20:43:00,
2011-07-17 14:53:00,90.9,52.0,29.97,SE,135,4.7,4.7,27,0.00,,,0.00,open2300-1.11,2011-07-17 20:53:00,
2011-07-17 15:03:00,90.7,51.8,29.97,East,90,5.1,5.1,27,0.00,,,0.00,open2300-1.11,2011-07-17 21:03:00,
2011-07-17 15:13:00,91.2,51.2,29.97,East,90,3.6,6.5,26,0.00,,,0.00,open2300-1.11,2011-07-17 21:13:00,
2011-07-17 15:23:00,92.1,51.9,29.97,SSW,202,0.0,3.6,26,0.00,,,0.00,open2300-1.11,2011-07-17 21:23:00,
2011-07-17 15:33:00,92.5,51.1,29.95,East,90,0.0,0.0,25,0.00,,,0.00,open2300-1.11,2011-07-17 21:33:00,
2011-07-17 15:43:00,93.0,51.6,29.95,SW,225,0.0,0.0,25,0.00,,,0.00,open2300-1.11,2011-07-17 21:43:00,
2011-07-17 15:53:00,94.1,50.2,29.95,South,180,0.0,3.4,23,0.00,,,0.00,open2300-1.11,2011-07-17 21:53:00,
2011-07-17 16:03:00,93.7,47.8,29.95,ESE,112,0.0,8.3,21,0.00,,,0.00,open2300-1.11,2011-07-17 22:03:00,
2011-07-17 16:13:00,93.0,48.3,29.95,SE,135,0.0,2.0,22,0.00,,,0.00,open2300-1.11,2011-07-17 22:13:00,
2011-07-17 16:23:00,92.1,47.5,29.95,SSE,157,0.0,4.5,22,0.00,,,0.00,open2300-1.11,2011-07-17 22:23:00,
2011-07-17 16:33:00,91.6,47.1,29.95,West,270,4.7,4.7,22,0.00,,,0.00,open2300-1.11,2011-07-17 22:33:00,
2011-07-17 16:43:00,91.2,46.8,29.95,SSE,157,0.0,4.7,22,0.00,,,0.00,open2300-1.11,2011-07-17 22:43:00,
2011-07-17 16:53:00,91.2,46.8,29.95,SSW,202,1.8,2.9,22,0.00,,,0.00,open2300-1.11,2011-07-17 22:53:00,
2011-07-17 17:03:00,90.7,48.6,29.94,WSW,247,1.6,5.1,24,0.00,,,0.00,open2300-1.11,2011-07-17 23:03:00,
2011-07-17 17:13:00,90.3,48.2,29.94,SSE,157,0.0,1.6,24,0.00,,,0.00,open2300-1.11,2011-07-17 23:13:00,
2011-07-17 17:23:00,90.0,48.0,29.95,ESE,112,0.0,4.7,24,0.00,,,0.00,open2300-1.11,2011-07-17 23:23:00,
2011-07-17 17:33:00,89.8,48.9,29.95,West,270,0.0,0.0,25,0.00,,,0.00,open2300-1.11,2011-07-17 23:33:00,
2011-07-17 17:43:00,89.4,48.6,29.95,WSW,247,0.0,0.0,25,0.00,,,0.00,open2300-1.11,2011-07-17 23:43:00,
2011-07-17 17:53:00,89.1,49.3,29.95,East,90,0.0,0.0,26,0.00,,,0.00,open2300-1.11,2011-07-17 23:53:00,
2011-07-17 18:03:00,88.7,50.1,29.94,West,270,0.0,0.0,27,0.00,,,0.00,open2300-1.11,2011-07-18 00:03:00,
2011-07-17 18:13:00,88.7,49.0,29.95,SW,225,0.0,2.9,26,0.00,,,0.00,open2300-1.11,2011-07-18 00:13:00,
2011-07-17 18:23:00,88.5,48.9,29.95,WSW,247,0.0,0.0,26,0.00,,,0.00,open2300-1.11,2011-07-18 00:23:00,
2011-07-17 18:33:00,88.2,48.6,29.95,WSW,247,0.0,0.0,26,0.00,,,0.00,open2300-1.11,2011-07-18 00:33:00,
2011-07-17 18:43:00,87.8,48.3,29.95,SW,225,0.0,0.0,26,0.00,,,0.00,open2300-1.11,2011-07-18 00:43:00,
2011-07-17 18:53:00,87.8,48.3,29.95,WSW,247,0.0,0.0,26,0.00,,,0.00,open2300-1.11,2011-07-18 00:53:00,
2011-07-17 19:03:00,87.6,47.0,29.95,SSW,202,0.0,0.0,25,0.00,,,0.00,open2300-1.11,2011-07-18 01:03:00,
2011-07-17 19:13:00,87.4,46.9,29.95,WSW,247,0.0,0.0,25,0.00,,,0.00,open2300-1.11,2011-07-18 01:13:00,
2011-07-17 19:23:00,86.9,47.5,29.95,WSW,247,0.0,0.0,26,0.00,,,0.00,open2300-1.11,2011-07-18 01:23:00,
2011-07-17 19:33:00,86.2,49.1,29.95,WNW,292,0.0,3.1,28,0.00,,,0.00,open2300-1.11,2011-07-18 01:33:00,
2011-07-17 19:43:00,85.8,49.8,29.96,WNW,292,6.0,6.0,29,0.00,,,0.00,open2300-1.11,2011-07-18 01:43:00,
2011-07-17 19:53:00,84.9,50.1,29.97,SW,225,0.0,6.0,30,0.00,,,0.00,open2300-1.11,2011-07-18 01:53:00,
2011-07-17 20:03:00,84.4,51.2,29.97,NW,315,0.0,0.0,32,0.00,,,0.00,open2300-1.11,2011-07-18 02:03:00,
2011-07-17 20:13:00,83.8,51.5,29.99,NW,315,0.0,0.0,33,0.00,,,0.00,open2300-1.11,2011-07-18 02:13:00,
2011-07-17 20:23:00,83.3,51.0,29.99,NW,315,0.0,0.0,33,0.00,,,0.00,open2300-1.11,2011-07-18 02:23:00,
2011-07-17 20:33:00,82.9,51.5,29.99,WNW,292,0.0,3.1,34,0.00,,,0.00,open2300-1.11,2011-07-18 02:33:00,
2011-07-17 20:43:00,82.6,51.2,29.99,NNW,337,0.0,0.0,34,0.00,,,0.00,open2300-1.11,2011-07-18 02:43:00,
2011-07-17 20:53:00,82.0,50.7,30.00,NNW,337,0.0,0.0,34,0.00,,,0.00,open2300-1.11,2011-07-18 02:53:00,
2011-07-17 21:03:00,81.5,51.0,30.00,NNW,337,0.0,0.0,35,0.00,,,0.00,open2300-1.11,2011-07-18 03:03:00,
2011-07-17 21:13:00,81.0,51.3,30.00,NNW,337,0.0,0.0,36,0.00,,,0.00,open2300-1.11,2011-07-18 03:13:00,
2011-07-17 22:13:00,78.8,52.5,30.02,NNW,337,0.0,0.0,40,0.00,,,0.00,open2300-1.11,2011-07-18 04:13:00,
2011-07-17 22:43:00,78.1,53.1,30.05,NNW,337,0.0,0.0,42,0.00,,,0.00,open2300-1.11,2011-07-18 04:43:00,